Hourly Weather Roundup
Issued by NWS

Home | Current Version | Previous Version | Text Only | Print | Product List | Glossary On
Versions: 1 2 3 4 5 6 7 8 9 10 11 12 13 14 15 16 17 18 19 20 21 22 23 24 25 26 27 28 29 30 31 32 33 34 35 36 37 38 39 40 41 42 43 44 45 46 47 48 49 50
000
NZUS43 KILX 291210
HWRCRS

CRS HOURLY WEATHER ROUNDUP
NATIONAL WEATHER SERVICE, LINCOLN IL
700 AM CDT WED JUL 29 2015


CITY           SKY/WX    TMP DP  RH WIND       PRES   REMARKS
CHAMPAIGN      CLOUDY    73  72  96 S3        29.98R FOG
LAWRENCEVILLE  PTSUNNY   76  75  97 SW5       29.99S FOG
PEORIA         CLOUDY    77  73  87 NW3       29.99R
SPRINGFIELD    CLOUDY    79  76  90 NW8       29.98R HX  83
$$


CITY           SKY/WX    TMP DP  RH WIND       PRES   REMARKS
BLOOMINGTON    CLOUDY    74  74 100 S3        30.00R
DECATUR        CLOUDY    75  72  90 CALM      29.98R
EFFINGHAM      PTSUNNY   75  73  91 N6        29.99S FOG
FLORA          PTSUNNY   77  75  95 SW3       29.98F FOG
GALESBURG      CLOUDY    72  69  91 NW8       30.00S
JACKSONVILLE   CLOUDY    75  72  91 NW8       30.00R
LACON          CLOUDY    74  72  93 NW3       29.97S
LINCOLN        CLOUDY    76  73  90 CALM      29.98R
LITCHFIELD     PTSUNNY   77  74  91 W7        29.99R FOG

CITY           SKY/WX    TMP DP  RH WIND       PRES   REMARKS
MACOMB         CLOUDY    73  70  93 NW7       30.03S
MATTOON        LGT RAIN  75  72  90 SE7       29.97F
MOLINE         CLOUDY    74  70  87 NW7       30.00R
OLNEY          PTSUNNY   73  73 100 CALM      29.98F
PARIS          PTSUNNY   72  72  98 CALM      29.98F
PONTIAC        CLOUDY    75  74  97 W6        29.98R
QUINCY         CLOUDY    72  70  93 N7        30.02F
RANTOUL        CLOUDY    76  74  95 N5        29.98R
ROBINSON       PTSUNNY   76  74  96 CALM      30.01S THUNDER FOG
TAYLORVILLE    CLOUDY    73  73 100 CALM      29.98R FOG
TERRE HAUTE    CLOUDY    74  73  97 S3        29.98F
$$


CITY           SKY/WX    TMP DP  RH WIND       PRES   REMARKS
BURLINGTON     CLOUDY    72  71  97 W6        30.02R
CHICAGO        CLOUDY    76  71  85 W8        29.94R
DES MOINES     MOCLDY    72  68  87 NW6       30.07F
EVANSVILLE     TSTM      76  73  91 NE7       30.02R FOG
INDIANAPOLIS   PTSUNNY   77  74  90 S7        29.96F FOG
KANSAS CITY    LGT RAIN  71  70  96 NW12      30.11R VSB 1/2
MILWAUKEE      CLOUDY    77  71  82 NW10      29.93R
ST LOUIS       PTSUNNY   83  76  79 NW10      30.00R HX  91
$$




USA.gov is the U.S. government's official web portal to all federal, state and local government web resources and services.